This is the latest recevied weather packets stored in our database for station/object OK1FET-17. If no packets are shown the sender has not sent any weather packets the latest 10 day(s).
| Time | Temp. | Humidity | Pressure | Rain* | Wind** | Luminosity | Snow |
|---|---|---|---|---|---|---|---|
| 1788429393 | 26.11° C | 47% | 1025.8 hPa | - | - | - | - |
| 1788428175 | 26.67° C | 54% | 1026 hPa | - | - | - | - |
| 1788427566 | 26.11° C | 54% | 1026.1 hPa | - | - | - | - |
| 1788426957 | 25° C | 56% | 1026 hPa | - | - | - | - |
| 1788426349 | 24.44° C | 61% | 1026 hPa | - | - | - | - |
| 1788425741 | 23.89° C | 61% | 1026.1 hPa | - | - | - | - |
| 1788425134 | 23.89° C | 65% | 1026.1 hPa | - | - | - | - |
| 1788424526 | 22.78° C | 67% | 1026.1 hPa | - | - | - | - |
| 1788423918 | 22.78° C | 68% | 1026.1 hPa | - | - | - | - |
| 1788423310 | 23.33° C | 65% | 1026 hPa | - | - | - | - |
| 1788422702 | 22.78° C | 67% | 1026 hPa | - | - | - | - |
| 1788422094 | 23.33° C | 62% | 1026 hPa | - | - | - | - |
| 1788421486 | 23.89° C | 75% | 1026.1 hPa | - | - | - | - |
| 1788420878 | 23.33° C | 75% | 1026.2 hPa | - | - | - | - |
| 1788420270 | 23.33° C | 72% | 1026.2 hPa | - | - | - | - |
| 1788420270 | 23.33° C | 72% | 1026.2 hPa | - | - | - | - |
| 1788419662 | 22.78° C | 80% | 1026.2 hPa | - | - | - | - |
| 1788419054 | 22.78° C | 79% | 1026.2 hPa | - | - | - | - |
| 1788418447 | 22.22° C | 77% | 1026.1 hPa | - | - | - | - |
| 1788417839 | 22.22° C | 79% | 1026.1 hPa | - | - | - | - |
| 1788417232 | 21.67° C | 82% | 1026 hPa | - | - | - | - |
| 1788416626 | 21.11° C | 82% | 1026 hPa | - | - | - | - |
| 1788416019 | 20.56° C | 80% | 1026 hPa | - | - | - | - |
| 1788415413 | 20° C | 82% | 1025.9 hPa | - | - | - | - |
| 1788414808 | 19.44° C | 81% | 1025.7 hPa | - | - | - | - |
* Rain since midnight (hover to see other rain measurements)
** Current wind speed in m/s (hover to see current wind gust speed)